Regional Weather Roundup
Issued by NWS

Home | Current Version | Previous Version | Graphics & Text | Print | Product List | Glossary On
Versions: 1 2 3 4 5 6 7 8 9 10 11 12 13 14 15 16 17 18 19 20 21 22 23 24 25 26 27 28 29 30 31 32 33 34 35 36 37 38 39 40 41 42 43 44 45 46 47 48 49 50
406
ASUS44 KLIX 230810
RWRLA
LOUISIANA WEATHER ROUNDUP
NATIONAL WEATHER SERVICE NEW ORLEANS LA
300 AM CDT THU OCT 23 2014

NOTE: "FAIR" INDICATES FEW OR NO CLOUDS BELOW 12,000 FEET WITH NO
      SIGNIFICANT WEATHER AND/OR OBSTRUCTIONS TO VISIBILITY.
      SKY/WX - SKY CONDITION AND SIGNIFICANT WEATHER.
      TMP - AIR TEMPERATURE.    DP   - DEWPOINT TEMPERATURE.
      RH  - RELATIVE HUMIDITY.  PRES - PRESSURE.
      HX  - HEAT INDEX.         WCI  - WIND CHILL INDEX.

*  THESE STATIONS ARE NOT NWS OR FAA STATIONS AND ARE NOT UNDER
   NWS QUALITY CONTROL.

LAZ040-048-061>063-065-066-069-230900-
SOUTHEAST LOUISIANA

CITY           SKY/WX    TMP DP  RH WIND       PRES   REMARKS
N.O. AUDUBON     N/A     65  50  59 MISG        N/A
N.O. INTL ARPT CLEAR     65  48  54 NE10      30.06S
N.O. LAKEFRONT LGT RAIN  66  51  58 NE20      30.06F
N.O. DOWNTOWN* FAIR      63  45  51 NE10      30.06S
SLIDELL        CLEAR     50  47  89 N5        30.07S
BATON ROUGE    CLEAR     54  49  83 NE6       30.09F
BOOTHVILLE     CLEAR     71  57  61 NE9       30.03F
BELLE CHASSE   CLEAR     60  52  74 NE6       30.05S
BOGALUSA*        N/A     47  44  90 CALM      30.11R FOG
NEW ROADS*     FAIR      56  49  77 NE5       30.09F
GONZALES*      FAIR      56  52  85 N3        30.07F
HAMMOND*       CLEAR     54  46  76 N5        30.10S
HOUMA*         CLEAR     56  52  89 N6        30.05S
PORT FOURCHON* SUNNY     70  57  64 NE12      30.06S

$$

LAZ041-044-053-054-230900-
SOUTHWEST LOUISIANA

CITY           SKY/WX    TMP DP  RH WIND       PRES   REMARKS
LAKE CHARLES   CLEAR     58  52  80 NE8       30.08S
LAFAYETTE      CLEAR     55  53  93 NE6       30.08F
PATTERSON      CLEAR     57  54  88 NE6       30.08S
SALT POINT       N/A     61  56  83 CALM      30.05S
NEW IBERIA     CLEAR     59  53  80 NE9       30.08F
CHENAULT AIRPK CLEAR     58  52  79 NE3       30.09S

$$

LAZ027-028-230900-
CENTRAL LOUISIANA

CITY           SKY/WX    TMP DP  RH WIND       PRES   REMARKS
FORT POLK      CLEAR     57  49  74 NE5       30.10S
ALEXANDRIA INT CLEAR     54  48  80 N5        30.10S
ALEXANDRIA     CLEAR     48  47  96 CALM      30.11F

$$

LAZ001-002-230900-
NORTHWEST LOUISIANA

CITY           SKY/WX    TMP DP  RH WIND       PRES   REMARKS
SHREVEPORT     CLOUDY    58  49  72 E5        30.12F
BARKSDALE AFB  CLOUDY    57  47  70 E3        30.13F
DTN SHREVEPORT MOCLDY    57  49  74 E3        30.13F

$$

LAZ014-016-230900-
NORTHEAST LOUISIANA

CITY           SKY/WX    TMP DP  RH WIND       PRES   REMARKS
MONROE         PTCLDY    48  45  89 N3        30.15R
TALLULAH       CLEAR     45  43  93 NE3       30.13F

$$




USA.gov is the U.S. government's official web portal to all federal, state and local government web resources and services.